Погода в Красной Поляне

Россия / Костромская область     57°52′21″N   42°10′12″E
темп.,
°C
ветер,
м/с
пор.,
м/с
влажн.,
%
обл.,
%
осадки,
мм/ч
давл.,
гПа
погр.,
м
20 июня, вс
вс2000:00+18з38935 0.0 1021146
03:00+17з26925 0.0 102298
06:00+20з24805 0.0 1022160
09:00+26зюз24560 0.0 1022612
12:00+29зюз44424 0.0 10211819
15:00+29зюз44425 0.0 10201767
18:00+27зюз35553 0.0 1020624
21:00+21зюз22805 0.0 102024
21 июня, пн
пн2100:00+19зюз24890 0.0 102069
03:00+18зюз24870 0.0 102177
06:00+21зюз26780 0.0 1021178
09:00+26зюз34560 0.0 1021690
12:00+30зюз34430 0.0 10211748
15:00+30зюз44414 0.0 10202096
18:00+28зюз35535 0.0 1020515
21:00+22зюз2277100 0.0 102021
22 июня, вт
вт2200:00+20з2288100 0.0 102143
03:00+18зюз228373 0.0 102223
06:00+21зюз247410 0.0 1022129
09:00+26зюз245577 0.0 1022532
12:00+30юз334086 0.0 10211745
15:00+31юз333986 0.0 10212237
18:00+28юз355486 0.0 1020387
21:00+22зюз227734 0.0 102011
23 июня, ср
ср2300:00+20з22785 0.0 102116
03:00+19зюз22884 0.0 102118
06:00+22зюз13794 0.0 1021157
09:00+28зюз23570 0.0 1020723
12:00+31з344149 0.0 10201989
15:00+32з34387 0.0 10192290
18:00+30з365045 0.0 1019515
21:00+24зюз24770 0.0 101964
24 июня, чт
чт2400:00+22з24833 0.0 102059
03:00+20з228417 0.0 101921
06:00+23з247391 0.0 1020135
09:00+29з23515 0.0 1019564
12:00+32з353886 0.0 10191865
15:00+33з443545 0.0 10182472
18:00+31юз36483 0.0 1017473
21:00+21ссз2369100 0.3 101847